St. Marys, AK

11:07 PM AKST on November 12, 2019 (GMT -0900)
Saint Mary's

Weather History for PASM - September, 2019

Change the Weather History Date:

Monday, September 2, 2019

  Actual Average Record
Temperature  
Mean Temperature 56 °F -  
Max Temperature 52 °F 51 °F 70 °F (2016)
Min Temperature 53 °F 40 °F 37 °F (1998)
Degree Days  
Heating Degree Days 9    
Growing Degree Days 6 (Base 50)    
Moisture  
Dew Point 53 °F    
Average Humidity 94    
Maximum Humidity 100    
Minimum Humidity 84    
Precipitation  
Precipitation 0.18 in - - ()
Sea Level Pressure  
Sea Level Pressure 29.20 in    
Wind  
Wind Speed 13 mph ()    
Max Wind Speed 22 mph    
Max Gust Speed 26 mph    
Visibility 9.1 miles    
Events Rain    
Averages and records for this station are not official NWS values.
T = Trace of Precipitation, MM = Missing Value Source: Averaged Metar Reports

Daily Weather History Graph

Daily Weather History Graph

Search for Another Location

Airport or City:

Astronomy

Sep. 02, 2019 Rise Set
Actual Time 7:45 AM AKDT 9:58 PM AKDT
Civil Twilight 6:56 AM AKDT 10:46 PM AKDT
Nautical Twilight 5:52 AM AKDT 11:50 PM AKDT
Astronomical Twilight 4:20 AM AKDT 1:18 AM AKDT
Moon 12:46 PM AKDT (9/2) 11:14 PM AKDT (9/2)
Length of Visible Light 15h 50m
Length of Day
14h 13m
Waxing Crescent, 16% of the Moon is Illuminated
Sep 2
Waxing Crescent
Sep 5
First Quarter
Sep 13
Full
Sep 21
Last Quarter
Sep 28
New

Hourly Weather History & Observations

Time (AKDT) Temp. Dew Point Humidity Pressure Visibility Wind Dir Wind Speed Gust Speed Precip Events Conditions
12:02 AM 53.1 °F 51.1 °F 93% 29.11 in 10.0 mi ESE 10.4 mph - 0.00 in Rain Light Rain
1:02 AM 53.1 °F 51.1 °F 93% 29.11 in 10.0 mi East 12.7 mph - 0.00 in Rain Light Rain
2:02 AM 53.1 °F 51.1 °F 93% 29.11 in 10.0 mi East 12.7 mph - 0.00 in   Overcast
3:02 AM 53.1 °F 51.1 °F 93% 29.11 in 10.0 mi East 12.7 mph - 0.00 in Rain Light Rain
3:46 AM 53.6 °F 51.8 °F 94% 29.08 in 10.0 mi ESE 15.0 mph - 0.00 in   Overcast
4:02 AM 53.1 °F 52.0 °F 96% 29.11 in 10.0 mi ESE 11.5 mph - 0.00 in   Overcast
4:43 AM 53.6 °F 51.8 °F 94% 29.09 in 5.0 mi ESE 12.7 mph - 0.00 in Rain Light Rain
5:02 AM 53.1 °F 52.0 °F 96% 29.10 in 10.0 mi ESE 15.0 mph - 0.00 in   Overcast
5:15 AM 53.6 °F 51.8 °F 94% 29.08 in 10.0 mi ESE 13.8 mph 21.9 mph N/A   Overcast
6:02 AM 53.1 °F 52.0 °F 96% 29.11 in 10.0 mi East 12.7 mph - 0.01 in   Overcast
6:45 AM 53.6 °F 51.8 °F 94% 29.09 in 10.0 mi ESE 13.8 mph - 0.00 in Rain Light Rain
7:02 AM 53.1 °F 52.0 °F 96% 29.11 in 10.0 mi East 13.8 mph - 0.00 in Rain Light Rain
7:26 AM 53.6 °F 51.8 °F 94% 29.08 in 10.0 mi ESE 12.7 mph - 0.00 in Rain Light Rain
8:02 AM 53.1 °F 52.0 °F 96% 29.10 in 8.0 mi ESE 15.0 mph - 0.01 in Rain Light Rain
10:02 AM 53.1 °F 52.0 °F 96% 29.11 in 10.0 mi ESE 17.3 mph 25.3 mph 0.05 in Rain Light Rain
11:02 AM 54.0 °F 53.1 °F 97% 29.12 in 8.0 mi ESE 15.0 mph 23.0 mph 0.01 in   Overcast
12:02 PM 54.0 °F 53.1 °F 97% 29.13 in 10.0 mi SE 13.8 mph 20.7 mph 0.01 in Rain Light Rain
1:02 PM 55.0 °F 55.0 °F 100% 29.15 in 7.0 mi SE 13.8 mph 20.7 mph 0.02 in Rain Light Rain
1:38 PM 57.2 °F 55.4 °F 94% 29.14 in 10.0 mi SSE 13.8 mph 24.2 mph 0.00 in   Overcast
1:50 PM 55.4 °F 55.4 °F 100% 29.14 in 10.0 mi SSE 13.8 mph 21.9 mph 0.00 in   Overcast
2:02 PM 57.0 °F 54.0 °F 89% 29.16 in 10.0 mi SSE 11.5 mph 20.7 mph 0.00 in   Overcast
3:02 PM 57.9 °F 53.1 °F 84% 29.18 in 6.0 mi SSE 16.1 mph 23.0 mph 0.00 in Rain Light Rain
3:32 PM 55.4 °F 55.4 °F 100% 29.17 in 10.0 mi SSE 12.7 mph 21.9 mph 0.02 in   Overcast
3:39 PM 55.4 °F 55.4 °F 100% 29.17 in 8.0 mi SSE 11.5 mph 19.6 mph 0.02 in   Overcast
4:02 PM 55.9 °F 55.0 °F 97% 29.19 in 5.0 mi South 11.5 mph 20.7 mph 0.05 in Rain Light Rain
4:45 PM 57.2 °F 55.4 °F 94% 29.19 in 10.0 mi South 10.4 mph - 0.01 in Rain Light Rain
5:02 PM 59.0 °F 55.9 °F 90% 29.22 in 10.0 mi South 16.1 mph 25.3 mph 0.01 in   Overcast
6:02 PM 57.2 °F 55.4 °F 94% 29.23 in 10.0 mi South 16.1 mph - 0.00 in   Overcast
6:10 PM 57.2 °F 55.4 °F 94% 29.23 in 10.0 mi SSW 19.6 mph - 0.00 in   Overcast
7:02 PM 57.0 °F 54.0 °F 89% 29.29 in 9.0 mi SSW 19.6 mph 26.5 mph 0.01 in   Overcast
7:40 PM 57.2 °F 53.6 °F 88% 29.29 in 10.0 mi SW 17.3 mph 24.2 mph N/A   Overcast
8:02 PM 55.4 °F 53.6 °F 94% 29.31 in 10.0 mi SSW 21.9 mph 26.5 mph 0.00 in Rain Light Rain
8:09 PM 55.4 °F 53.6 °F 94% 29.31 in 10.0 mi SSW 16.1 mph - 0.00 in Rain Light Rain
8:23 PM 55.4 °F 53.6 °F 94% 29.32 in 10.0 mi SSW 16.1 mph 25.3 mph 0.00 in   Overcast
8:33 PM 55.9 °F 53.1 °F 90% 29.34 in 10.0 mi SSW 16.1 mph 21.9 mph 0.00 in   Overcast
9:31 PM 53.6 °F 53.6 °F 100% 29.36 in 4.0 mi SSW 13.8 mph - 0.00 in Rain Light Rain
10:02 PM 54.0 °F 52.0 °F 93% 29.40 in 10.0 mi SW 18.4 mph - 0.00 in   Overcast
10:13 PM 53.6 °F 51.8 °F 94% 29.39 in 6.0 mi SW 18.4 mph 25.3 mph N/A   Overcast
11:02 PM 53.1 °F 52.0 °F 96% 29.45 in 10.0 mi SW 16.1 mph 23.0 mph N/A   Overcast
11:19 PM 53.6 °F 51.8 °F 94% 29.44 in 7.0 mi SSW 15.0 mph - N/A   Overcast